Find Starlink 31879

NORAD ID: 59937 Int'l Des: 2024-106 Owner: SPXS Country: US Constellation: starlink operational
LEOCIRCULAR

Live-Position

3D-Globus wird geladen...

Über Starlink 31879

Beschreibung wird geladen...

Nächste Überflüge

Passes for default location (London). Set your location on the main map for personalized predictions.

Höhenverlauf

Loading altitude history...

Zweizeiliger Elementsatz

1 59937U 24106R 26125.09159470 .00001645 00000-0 69294-4 0 9997
2 59937 43.0052 14.4304 0001244 293.5841 66.4880 15.27571758109198
Epoch: 5. Mai 2026 • Age: 9 hours

Aktueller Status

Höhe 495.6 km
Geschwindigkeit 7.62 km/s
Subsatellitenpunkt -43.09°S, 105.47°W
Startdatum 1. Juni 2024
Alter 1.9 years
Typ internet

Technische Details

Klassifizierung Payload
Masse 730.00 kg
Trockenmasse 700.00 kg
Gesamtmasse 730.00 kg
Länge 0.30 m
Durchmesser 4.10 m
Spannweite 29.00 m
Form Box + pan
Hersteller SPXS
Bus-Typ Starlink V2M
Phasenstatus In Orbit
Besitzer/Staat SPXS/US

Most Searched